Wind_Speed
28 28 29 30 28 28 30 31 32 31 32 30 30 30 30 29 29 29 29 28 27 27 27 28 29 29 30 31 32 33 34 35 35 36 37 37 38 38 39 39 40 40 40 40
28 28 29 29 28 29 30 30 31 31 31 29 29 30 30 30 30 30 29 29 28 28 28 28 29 29 30 31 32 33 34 35 36 37 37 37 37 38 39 39 39 40 40 40
29 29 30 30 28 29 29 29 30 30 29 28 29 30 30 30 29 29 29 29 29 28 28 28 28 29 30 30 32 32 33 34 35 36 36 37 37 38 38 39 40 40 40 40
29 30 31 29 28 28 29 29 28 28 29 29 29 29 29 29 29 28 29 29 29 30 30 30 30 30 30 31 31 32 33 34 35 36 36 37 37 38 38 39 39 40 40 41
30 31 31 29 28 29 29 28 27 27 28 29 29 29 29 29 29 29 28 29 29 29 29 30 30 30 31 31 32 32 33 34 35 35 36 36 37 37 38 39 39 40 41 41
30 31 31 28 27 27 28 28 26 27 28 28 29 29 28 28 28 28 28 27 28 29 29 30 30 31 31 31 32 32 32 33 33 34 34 35 35 36 37 38 39 39 40 40
29 30 29 26 26 26 27 27 26 27 27 28 28 28 27 27 28 28 28 28 29 30 30 30 31 31 32 32 32 32 33 33 33 33 34 34 35 36 37 37 38 38 39 39
28 29 28 26 26 26 26 26 26 27 27 27 27 27 27 27 27 27 28 28 29 30 31 31 31 31 32 32 32 33 33 33 34 34 35 35 36 36 37 37 38 38 39 39
29 28 27 27 27 26 26 26 25 26 26 26 26 26 26 27 27 27 27 28 29 29 30 31 31 31 32 32 32 33 33 34 34 35 35 35 35 36 37 38 38 38 38 39
29 28 28 28 27 26 26 26 27 27 27 26 26 26 26 26 27 27 27 27 27 28 29 29 30 30 31 31 31 32 32 32 33 34 34 35 36 37 37 38 38 38 38 39
29 28 29 28 28 28 27 27 27 28 27 27 26 26 26 26 26 26 26 27 27 27 28 29 30 30 30 30 31 31 31 31 32 33 34 34 35 36 36 37 37 38 39 39
29 28 29 29 28 28 27 27 27 27 27 27 27 27 26 26 26 26 26 27 27 27 28 29 29 29 29 30 30 31 31 31 32 32 33 33 34 35 35 36 37 38 38 39
27 28 28 27 27 27 27 27 27 27 28 28 28 28 28 27 27 27 27 27 27 27 27 28 29 29 29 30 30 30 31 31 31 31 32 33 33 34 34 36 36 37 39 39
26 26 26 26 26 26 27 27 28 27 27 28 28 28 28 27 27 27 26 27 27 27 27 27 28 29 29 30 30 30 30 30 29 30 30 31 32 33 34 35 36 37 38 38
24 25 25 25 25 25 26 26 26 26 26 26 27 27 27 27 27 26 26 26 26 26 27 27 27 28 28 29 29 28 28 28 28 29 30 31 32 33 34 35 35 36 37 37
22 22 23 23 23 23 23 24 24 24 24 24 25 25 25 25 25 26 26 26 26 26 27 27 27 27 27 27 27 27 27 27 28 29 30 31 32 33 33 34 34 36 37 37
20 20 21 22 22 22 22 22 23 23 24 23 24 24 24 24 24 25 26 26 26 26 26 26 26 26 26 26 26 27 27 28 28 29 29 30 31 32 32 33 34 35 36 36
19 19 20 20 21 21 22 22 22 22 23 24 24 24 24 24 24 25 26 26 26 26 26 26 25 25 25 25 26 26 27 27 28 29 29 30 31 32 32 33 34 35 36 36
19 19 20 21 21 20 20 21 21 22 22 22 23 24 25 25 25 25 25 25 26 26 26 26 25 24 24 24 24 25 26 27 28 28 29 30 30 31 33 33 34 35 35 35
20 20 20 20 20 20 20 20 21 21 21 21 22 23 24 24 24 24 24 25 26 26 25 25 24 24 23 23 24 25 26 27 28 29 29 30 31 32 32 33 34 34 34 33
20 20 19 20 19 19 20 20 20 20 20 21 21 21 22 22 23 23 24 24 24 24 24 24 24 24 24 24 25 26 27 28 29 29 29 30 31 32 33 33 33 33 32 31
19 19 19 19 19 18 19 19 19 19 19 20 20 20 21 21 22 22 22 23 23 23 23 23 24 24 25 25 26 27 28 29 29 29 30 30 31 32 32 32 32 31 31 30
18 18 18 18 18 18 18 18 19 19 19 19 19 20 20 21 21 21 21 21 21 22 22 22 23 23 24 25 27 28 28 28 28 29 29 30 31 31 31 31 31 30 30 29
17 17 17 17 17 18 18 18 18 18 18 18 19 19 20 20 20 20 20 20 21 21 20 21 22 23 24 25 26 27 27 27 28 28 28 29 30 30 30 29 29 29 29 29
16 17 17 17 17 17 17 17 17 17 17 17 17 18 18 18 18 18 19 19 19 19 19 20 22 23 24 25 26 26 27 27 28 28 28 28 29 29 29 28 28 28 28 27
16 16 16 16 16 16 16 16 15 15 15 16 17 17 16 16 17 17 18 19 19 19 20 21 22 23 24 25 25 26 27 27 28 28 28 28 28 28 28 27 27 27 27 26
15 15 15 15 15 15 15 15 14 14 15 15 15 15 15 16 16 17 18 18 19 19 20 21 22 23 24 25 25 26 26 26 26 27 27 27 27 27 26 26 26 26 24 23
Wind_Direction
268 268 268 269 269 268 268 268 268 267 266 267 267 266 266 267 268 266 265 263 261 260 262 262 262 261 261 260 260 260 260 261 262 263 263 263 264 266 267 268 269 270 271 272
268 268 268 268 268 270 271 270 270 266 264 266 265 266 266 266 266 265 263 262 260 260 261 262 262 262 262 262 261 261 262 262 263 264 265 265 265 267 269 270 271 271 271 272
269 269 268 267 270 272 271 270 270 267 265 265 265 265 265 265 266 265 262 260 257 259 261 262 263 263 263 263 263 263 264 264 265 265 265 265 266 268 268 269 271 271 272 273
268 267 267 271 271 272 271 270 269 268 266 265 265 264 264 263 264 265 262 259 259 261 263 264 265 265 265 265 265 265 266 267 266 266 267 267 268 268 268 269 271 272 272 274
268 270 271 271 273 274 273 271 270 269 267 266 266 266 266 265 264 265 264 262 261 262 264 265 267 267 267 268 269 269 269 270 270 269 269 269 269 269 269 270 271 273 274 274
270 271 273 275 274 273 272 271 271 271 269 267 266 266 265 265 265 265 265 265 262 262 265 267 268 268 269 269 271 271 271 271 271 271 272 272 271 271 271 271 272 274 275 277
269 272 275 278 276 274 273 273 271 271 270 268 267 267 267 266 265 265 266 267 267 265 265 267 269 269 270 271 272 273 272 272 272 272 273 274 273 273 274 275 275 276 277 279
268 271 275 277 275 274 275 274 272 271 270 269 267 267 267 267 267 267 267 268 269 267 267 268 269 270 271 271 273 273 273 273 273 272 273 274 275 275 276 276 277 278 279 280
267 270 273 274 273 273 272 271 271 271 271 270 268 267 268 269 269 269 270 270 270 269 268 268 269 271 272 272 274 274 274 274 274 273 274 275 276 277 278 278 278 280 280 282
267 268 269 270 269 269 269 269 268 270 271 270 269 268 268 269 270 271 271 272 272 271 270 270 271 271 273 273 274 274 274 274 274 274 275 276 277 278 279 279 279 281 282 282
266 267 267 267 267 267 267 268 268 268 269 269 269 269 269 270 271 271 271 272 273 272 270 270 271 272 273 273 274 275 275 275 276 277 277 278 278 279 281 282 283 283 284 285
268 267 266 266 266 266 267 267 268 267 267 267 268 268 269 270 271 271 271 273 274 275 274 272 272 273 274 275 276 277 277 277 277 278 279 279 280 281 283 284 285 286 287 287
270 270 269 268 267 266 266 266 266 266 265 266 267 269 269 270 271 272 273 275 277 278 277 276 274 273 274 275 277 278 279 279 279 279 280 280 282 283 285 286 288 289 289 290
271 271 270 269 268 267 267 267 267 266 265 266 267 268 269 270 271 272 273 275 277 278 278 278 276 276 276 276 278 279 280 280 281 281 282 283 285 286 286 287 288 290 292 292
271 270 270 268 267 266 266 266 266 266 267 268 269 268 269 270 271 272 273 274 276 278 279 279 278 277 277 277 278 279 280 281 282 283 284 286 288 289 289 290 291 292 293 292
273 272 270 268 267 268 267 265 264 265 267 268 269 268 269 270 271 272 274 275 276 278 279 280 281 280 278 277 278 280 282 283 285 286 287 289 290 291 292 294 295 295 295 294
275 272 270 269 268 269 269 267 266 266 267 269 269 269 271 272 273 273 274 276 277 278 279 281 282 282 280 279 280 283 284 285 286 287 289 291 292 294 295 296 297 298 297 296
275 272 271 271 270 271 271 269 268 268 270 270 270 271 273 273 273 273 274 276 277 277 278 279 280 281 281 281 282 284 286 286 287 288 291 293 294 296 297 298 299 299 298 297
275 273 273 273 271 271 271 271 271 272 273 273 272 272 273 274 274 274 274 275 275 276 277 277 278 280 281 282 284 285 287 288 289 291 293 294 296 297 298 300 301 301 299 298
274 272 272 273 272 271 272 273 274 275 275 275 275 275 275 275 275 275 276 277 276 277 277 277 277 280 282 282 284 287 288 290 291 293 295 296 297 298 300 301 302 302 301 299
273 271 271 272 273 272 273 275 277 277 276 275 276 276 277 277 277 277 278 278 277 277 277 277 277 278 280 282 286 288 290 292 294 295 296 297 298 300 301 302 302 302 301 299
273 271 271 272 272 273 274 276 278 279 278 277 277 278 279 280 280 280 279 279 278 277 277 277 278 279 280 283 287 289 291 293 294 295 296 298 300 301 302 303 303 302 301 300
273 273 272 272 273 273 275 278 280 280 280 279 279 279 280 282 282 282 280 280 279 279 278 278 279 280 283 285 288 290 292 293 295 297 298 299 301 302 303 304 303 303 302 301
274 274 273 273 274 275 278 281 281 281 281 280 280 281 282 283 283 284 283 282 281 279 278 278 280 283 287 289 290 292 293 294 296 299 301 302 303 304 305 306 305 304 304 303
275 274 274 273 275 277 279 281 281 281 282 282 283 285 285 285 286 286 287 286 284 281 280 280 283 287 290 293 295 295 295 295 296 298 300 302 304 305 307 307 307 307 306 304
277 276 274 273 275 277 279 281 281 281 284 285 286 287 288 287 288 290 291 289 286 283 283 285 287 290 293 295 297 298 298 297 297 299 301 303 304 306 308 308 309 309 308 307
276 275 274 274 275 278 281 282 283 285 288 288 288 290 291 291 291 292 292 291 289 287 287 289 291 294 296 298 300 300 301 301 301 301 302 303 305 307 309 310 311 310 309 309
Height
5592 5593 5593 5593 5594 5595 5594 5594 5594 5595 5596 5598 5598 5598 5598 5599 5599 5599 5600 5601 5602 5603 5604 5605 5606 5607 5608 5609 5609 5610 5611 5612 5613 5614 5614 5615 5616 5617 5617 5617 5618 5618 5617 5617
5585 5585 5584 5585 5586 5587 5587 5587 5586 5586 5588 5590 5589 5589 5589 5590 5591 5592 5592 5593 5595 5596 5596 5597 5598 5598 5599 5600 5601 5601 5602 5603 5603 5604 5604 5604 5605 5606 5606 5606 5606 5606 5606 5605
5577 5577 5576 5577 5580 5579 5579 5579 5578 5578 5581 5581 5581 5581 5581 5582 5583 5584 5585 5585 5586 5587 5588 5589 5590 5590 5591 5591 5591 5592 5592 5593 5593 5594 5594 5594 5594 5595 5595 5595 5594 5594 5594 5593
5568 5569 5568 5573 5572 5571 5570 5571 5571 5571 5571 5572 5572 5573 5573 5574 5575 5576 5576 5577 5578 5579 5580 5581 5581 5582 5582 5582 5582 5583 5583 5583 5583 5583 5583 5583 5583 5583 5583 5583 5583 5582 5582 5581
5560 5559 5560 5564 5564 5563 5562 5563 5564 5563 5563 5563 5564 5565 5566 5567 5567 5568 5568 5569 5570 5571 5571 5572 5572 5573 5573 5573 5573 5573 5573 5573 5573 5573 5573 5572 5572 5572 5572 5572 5571 5571 5570 5569
5553 5552 5552 5557 5557 5555 5555 5555 5557 5555 5555 5556 5556 5557 5559 5559 5559 5559 5560 5560 5561 5562 5562 5563 5563 5563 5563 5564 5564 5564 5563 5563 5563 5563 5562 5562 5562 5561 5561 5560 5560 5559 5558 5556
5545 5544 5545 5549 5548 5548 5549 5550 5549 5548 5548 5548 5548 5549 5550 5551 5551 5551 5552 5552 5553 5553 5554 5554 5554 5554 5554 5554 5554 5554 5553 5553 5553 5553 5552 5552 5551 5550 5550 5549 5548 5547 5546 5545
5537 5537 5541 5541 5540 5541 5541 5541 5540 5540 5540 5540 5541 5541 5542 5542 5542 5543 5543 5544 5544 5544 5544 5545 5545 5545 5545 5545 5545 5544 5544 5543 5543 5543 5542 5541 5540 5539 5538 5537 5536 5535 5534 5532
5531 5533 5533 5533 5532 5533 5533 5533 5532 5532 5533 5533 5533 5533 5534 5534 5534 5535 5535 5535 5535 5535 5535 5535 5536 5536 5536 5535 5535 5534 5534 5533 5533 5532 5531 5530 5530 5529 5527 5526 5525 5524 5522 5521
5522 5524 5524 5524 5524 5524 5524 5524 5524 5525 5525 5525 5525 5526 5526 5526 5526 5526 5526 5526 5526 5526 5526 5526 5527 5526 5526 5526 5525 5524 5524 5523 5522 5522 5521 5520 5519 5518 5517 5515 5514 5513 5511 5509
5513 5515 5515 5516 5516 5516 5516 5516 5516 5517 5517 5517 5518 5518 5518 5518 5518 5518 5518 5518 5517 5517 5517 5517 5517 5517 5517 5516 5516 5515 5514 5513 5512 5511 5511 5510 5508 5507 5506 5504 5502 5501 5499 5497
5505 5506 5506 5507 5507 5507 5507 5508 5508 5509 5509 5509 5510 5510 5510 5510 5510 5510 5510 5510 5509 5509 5508 5509 5508 5508 5508 5507 5506 5505 5504 5503 5502 5501 5500 5499 5498 5497 5494 5493 5491 5489 5487 5485
5497 5497 5497 5498 5498 5499 5499 5499 5500 5500 5501 5501 5502 5502 5502 5502 5502 5502 5502 5501 5501 5500 5500 5499 5499 5499 5499 5498 5497 5496 5495 5493 5492 5491 5490 5489 5488 5486 5485 5483 5480 5478 5475 5473
5488 5488 5489 5489 5490 5490 5490 5491 5491 5492 5492 5493 5493 5494 5494 5494 5494 5494 5494 5493 5493 5492 5491 5491 5490 5490 5489 5488 5488 5486 5485 5484 5482 5481 5480 5479 5477 5476 5474 5472 5470 5467 5464 5461
5481 5481 5481 5481 5481 5481 5481 5482 5483 5484 5484 5485 5485 5485 5486 5486 5486 5486 5486 5485 5485 5484 5483 5483 5482 5481 5480 5479 5478 5477 5476 5475 5473 5472 5471 5469 5468 5466 5464 5462 5459 5456 5453 5450
5473 5473 5473 5473 5473 5473 5473 5474 5475 5476 5476 5477 5477 5477 5478 5478 5478 5478 5477 5477 5477 5476 5475 5474 5474 5472 5471 5470 5470 5469 5468 5466 5465 5463 5462 5460 5458 5456 5454 5451 5448 5446 5443 5439
5466 5466 5466 5466 5466 5466 5466 5466 5467 5468 5469 5469 5469 5470 5470 5470 5470 5470 5469 5469 5469 5468 5467 5466 5465 5464 5463 5462 5462 5461 5459 5458 5456 5455 5453 5451 5449 5446 5444 5441 5438 5435 5432 5428
5460 5460 5460 5459 5459 5459 5460 5460 5460 5461 5461 5461 5461 5462 5462 5462 5462 5462 5461 5461 5461 5460 5459 5458 5457 5456 5455 5454 5453 5452 5451 5450 5448 5446 5444 5442 5440 5437 5434 5431 5428 5425 5421 5417
5454 5453 5453 5453 5453 5453 5453 5453 5453 5453 5453 5453 5454 5454 5454 5454 5454 5454 5453 5453 5453 5452 5451 5450 5450 5449 5448 5447 5446 5445 5444 5442 5440 5438 5436 5434 5431 5428 5425 5422 5418 5414 5411 5407
5447 5447 5447 5447 5447 5447 5447 5447 5447 5447 5446 5446 5446 5446 5446 5446 5446 5445 5445 5445 5444 5444 5443 5443 5442 5442 5441 5440 5439 5438 5436 5434 5432 5430 5427 5425 5422 5419 5416 5412 5409 5405 5401 5397
5441 5441 5441 5441 5441 5441 5441 5441 5440 5440 5440 5439 5439 5439 5439 5438 5438 5437 5437 5437 5436 5436 5435 5435 5435 5434 5434 5433 5432 5430 5428 5426 5424 5422 5419 5416 5413 5410 5407 5403 5399 5395 5392 5388
5435 5435 5435 5435 5435 5435 5435 5435 5435 5434 5433 5433 5433 5432 5432 5431 5431 5430 5429 5429 5428 5428 5428 5428 5427 5427 5426 5425 5424 5422 5420 5418 5416 5413 5410 5408 5405 5401 5398 5394 5390 5386 5383 5380
5430 5430 5430 5430 5430 5430 5430 5429 5429 5428 5427 5427 5426 5426 5425 5425 5424 5423 5423 5422 5421 5421 5420 5420 5420 5419 5418 5417 5416 5414 5412 5410 5407 5405 5402 5399 5396 5392 5389 5385 5381 5378 5375 5371
5424 5424 5424 5424 5424 5424 5424 5424 5423 5422 5421 5421 5420 5419 5419 5418 5417 5416 5416 5415 5414 5414 5413 5413 5413 5412 5411 5410 5408 5406 5404 5401 5399 5396 5394 5391 5387 5384 5381 5377 5373 5370 5367 5363
5419 5419 5419 5419 5419 5419 5418 5418 5417 5417 5416 5415 5414 5413 5413 5412 5411 5410 5409 5408 5407 5407 5406 5406 5406 5405 5404 5402 5400 5398 5396 5393 5391 5388 5386 5383 5379 5376 5372 5369 5365 5362 5359 5355
5414 5413 5413 5413 5413 5413 5413 5412 5412 5411 5411 5410 5409 5408 5407 5406 5405 5404 5403 5402 5401 5401 5400 5400 5399 5398 5396 5395 5393 5390 5388 5386 5383 5380 5378 5375 5372 5368 5365 5361 5358 5354 5351 5348
5408 5408 5408 5408 5408 5408 5408 5407 5407 5406 5406 5405 5404 5403 5402 5401 5400 5399 5397 5396 5395 5395 5394 5393 5392 5391 5390 5388 5385 5383 5380 5378 5375 5373 5370 5367 5364 5361 5357 5354 5351 5347 5344 5341